Weather History for Clarinda, IA

Change the Weather History Date:

Thursday, February 14, 2013

  Actual Average Record
Temperature  
Mean Temperature 35 °F -  
Max Temperature 44 °F 39 °F 62 °F (1999)
Min Temperature 24 °F 21 °F 0 °F (2007)
Degree Days  
Heating Degree Days 30    
Moisture  
Dew Point 27 °F    
Average Humidity 71    
Maximum Humidity 100    
Minimum Humidity 46    
Precipitation  
Precipitation 0.00 in - - ()
Sea Level Pressure  
Sea Level Pressure 29.98 in    
Wind  
Wind Speed 10 mph (NW)    
Max Wind Speed 18 mph    
Max Gust Speed 25 mph    
Visibility 10 miles    
Events Snow    
Averages and records for this station are not official NWS values.
T = Trace of Precipitation, MM = Missing Value Source: NWS Daily Summary

Daily Weather History Graph

Daily Weather History Graph

Search for Another Location

Airport:

Trip Planner

Search our weather history database for the weather conditions in past years. The results will help you decide how hot, cold, wet, or windy it might be!

Date:

Astronomy

Feb. 14, 2013 Rise Set
Actual Time 7:14 AM CST 5:54 PM CST
Civil Twilight 6:46 AM CST 6:22 PM CST
Nautical Twilight 6:14 AM CST 6:54 PM CST
Astronomical Twilight 5:43 AM CST 7:26 PM CST
Moon 9:15 AM CST (2/14) 10:59 PM CST (2/14)
Length of Visible Light 11h 35m
Length of Day
10h 39m
Waxing Crescent, 22% of the Moon is Illuminated
Feb 14
Waxing Crescent
Feb 17
First Quarter
Feb 25
Full
Mar 4
Last Quarter
Mar 11
New

Hourly Weather History & Observations

Time (CST) Temp. Windchill Dew Point Humidity Pressure Visibility Wind Dir Wind Speed Gust Speed Precip Events Conditions
12:15 AM 35.6 °F 29.9 °F 26.6 °F 70% 29.77 in 10.0 mi West 6.9 mph - N/A   Scattered Clouds
12:35 AM 35.6 °F 28.6 °F 26.6 °F 70% 29.78 in 10.0 mi West 9.2 mph - N/A   Scattered Clouds
12:55 AM 35.6 °F 28.0 °F 26.6 °F 70% 29.79 in 10.0 mi West 10.4 mph - N/A   Scattered Clouds
1:15 AM 35.6 °F 29.2 °F 26.6 °F 70% 29.79 in 10.0 mi West 8.1 mph - N/A   Clear
1:35 AM 35.6 °F 29.2 °F 28.4 °F 75% 29.79 in 10.0 mi West 8.1 mph - N/A   Scattered Clouds
1:55 AM 35.6 °F 29.2 °F 28.4 °F 75% 29.80 in 10.0 mi West 8.1 mph - N/A   Scattered Clouds
2:15 AM 37.4 °F 31.4 °F 28.4 °F 70% 29.80 in 10.0 mi West 8.1 mph - N/A   Clear
2:35 AM 35.6 °F 28.6 °F 28.4 °F 75% 29.81 in 10.0 mi West 9.2 mph - N/A   Clear
2:55 AM 37.4 °F 30.8 °F 28.4 °F 70% 29.81 in 10.0 mi WNW 9.2 mph - N/A   Clear
3:15 AM 37.4 °F 29.3 °F 28.4 °F 70% 29.82 in 10.0 mi WNW 12.7 mph 17.3 mph N/A   Clear
3:35 AM 37.4 °F 30.3 °F 28.4 °F 70% 29.82 in 10.0 mi WNW 10.4 mph 16.1 mph N/A   Clear
3:55 AM 35.6 °F 28.0 °F 28.4 °F 75% 29.83 in 10.0 mi WNW 10.4 mph - N/A   Clear
4:15 AM 35.6 °F 27.5 °F 28.4 °F 75% 29.83 in 10.0 mi WNW 11.5 mph - N/A   Clear
4:35 AM 35.6 °F 29.2 °F 28.4 °F 75% 29.85 in 10.0 mi WNW 8.1 mph - N/A   Clear
4:55 AM 33.8 °F 27.0 °F 28.4 °F 81% 29.85 in 10.0 mi WNW 8.1 mph - N/A   Clear
5:15 AM 33.8 °F 27.0 °F 28.4 °F 81% 29.86 in 10.0 mi WNW 8.1 mph - N/A   Clear
5:35 AM 33.8 °F 25.8 °F 28.4 °F 81% 29.86 in 10.0 mi NW 10.4 mph - N/A   Clear
5:55 AM 35.6 °F 28.0 °F 28.4 °F 75% 29.87 in 10.0 mi NNW 10.4 mph 17.3 mph N/A   Clear
6:15 AM 33.8 °F 27.0 °F 28.4 °F 81% 29.89 in 10.0 mi NNW 8.1 mph 11.5 mph N/A   Mostly Cloudy
6:35 AM 33.8 °F 27.7 °F 28.4 °F 81% 29.90 in 10.0 mi NW 6.9 mph - N/A   Overcast
6:55 AM 32.0 °F - 28.4 °F 87% 29.92 in 10.0 mi Calm Calm - N/A   Scattered Clouds
7:15 AM 32.0 °F 28.7 °F 28.4 °F 87% 29.93 in 10.0 mi WNW 3.5 mph - N/A   Clear
7:35 AM 32.0 °F 27.5 °F 28.4 °F 87% 29.94 in 10.0 mi WNW 4.6 mph - N/A   Clear
7:55 AM 32.0 °F 26.4 °F 28.4 °F 87% 29.95 in 10.0 mi NW 5.8 mph - N/A   Clear
8:15 AM 33.8 °F 28.6 °F 28.4 °F 81% 29.96 in 10.0 mi NNW 5.8 mph - N/A   Clear
8:35 AM 33.8 °F 27.0 °F 28.4 °F 81% 29.97 in 10.0 mi NW 8.1 mph - N/A   Clear
8:55 AM 35.6 °F 27.5 °F 28.4 °F 75% 29.96 in 10.0 mi NW 11.5 mph 17.3 mph N/A   Clear
9:15 AM 35.6 °F 27.5 °F 28.4 °F 75% 29.95 in 10.0 mi NNW 11.5 mph 17.3 mph N/A   Clear
9:35 AM 35.6 °F 28.6 °F 28.4 °F 75% 29.97 in 10.0 mi NNW 9.2 mph - N/A   Clear
9:55 AM 37.4 °F 30.8 °F 28.4 °F 70% 29.97 in 10.0 mi NW 9.2 mph 16.1 mph N/A   Clear
10:15 AM 37.4 °F 29.8 °F 28.4 °F 70% 29.97 in 10.0 mi NNW 11.5 mph 18.4 mph N/A   Clear
10:35 AM 39.2 °F 32.0 °F 28.4 °F 65% 29.97 in 10.0 mi NNW 11.5 mph - N/A   Clear
10:55 AM 39.2 °F 32.0 °F 30.2 °F 70% 29.97 in 10.0 mi WNW 11.5 mph - N/A   Clear
11:15 AM 41.0 °F 33.9 °F 30.2 °F 65% 29.98 in 10.0 mi WNW 12.7 mph 18.4 mph N/A   Clear
11:35 AM 41.0 °F 33.5 °F 30.2 °F 65% 29.99 in 10.0 mi NW 13.8 mph - N/A   Scattered Clouds
11:55 AM 41.0 °F 33.1 °F 30.2 °F 65% 30.00 in 10.0 mi WNW 15.0 mph 23.0 mph N/A   Mostly Cloudy
12:15 PM 41.0 °F 32.5 °F 30.2 °F 65% 29.99 in 10.0 mi WNW 17.3 mph 20.7 mph N/A   Mostly Cloudy
12:35 PM 44.6 °F 37.8 °F 30.2 °F 57% 29.99 in 10.0 mi West 15.0 mph 20.7 mph N/A   Mostly Cloudy
12:55 PM 42.8 °F 35.1 °F 30.2 °F 61% 29.99 in 10.0 mi WNW 16.1 mph 20.7 mph N/A   Scattered Clouds
1:15 PM 42.8 °F 35.4 °F 28.4 °F 57% 29.99 in 10.0 mi WNW 15.0 mph 20.7 mph N/A   Mostly Cloudy
1:35 PM 42.8 °F 34.8 °F 28.4 °F 57% 29.99 in 10.0 mi WNW 17.3 mph - N/A   Scattered Clouds
1:55 PM 44.6 °F 39.2 °F 28.4 °F 53% 29.99 in 10.0 mi NW 10.4 mph - N/A   Mostly Cloudy
2:15 PM 42.8 °F 36.2 °F 26.6 °F 53% 29.99 in 10.0 mi WNW 12.7 mph 23.0 mph N/A   Mostly Cloudy
2:35 PM 42.8 °F 34.8 °F 26.6 °F 53% 30.00 in 10.0 mi WNW 17.3 mph 20.7 mph N/A   Mostly Cloudy
2:55 PM 42.8 °F 37.5 °F 24.8 °F 49% 30.00 in 10.0 mi NW 9.2 mph 25.3 mph N/A   Overcast
3:15 PM 42.8 °F 37.0 °F 26.6 °F 53% 30.02 in 10.0 mi NW 10.4 mph 21.9 mph N/A   Mostly Cloudy
3:35 PM 44.6 °F 37.4 °F 24.8 °F 46% 30.02 in 10.0 mi NW 16.1 mph 25.3 mph N/A   Mostly Cloudy
3:55 PM 42.8 °F 36.6 °F 24.8 °F 49% 30.03 in 10.0 mi NW 11.5 mph 17.3 mph N/A   Scattered Clouds
4:15 PM 41.0 °F 33.9 °F 23.0 °F 49% 30.04 in 10.0 mi WNW 12.7 mph 17.3 mph N/A   Scattered Clouds
4:35 PM 39.2 °F 31.2 °F 24.8 °F 56% 30.04 in 10.0 mi NNW 13.8 mph - N/A   Mostly Cloudy
4:55 PM 39.2 °F 32.5 °F 24.8 °F 56% 30.05 in 10.0 mi NW 10.4 mph - N/A   Overcast
5:15 PM 39.2 °F 33.6 °F 23.0 °F 52% 30.05 in 10.0 mi NW 8.1 mph - N/A   Mostly Cloudy
5:35 PM 39.2 °F 33.6 °F 23.0 °F 52% 30.06 in 10.0 mi NW 8.1 mph - N/A   Mostly Cloudy
5:55 PM 37.4 °F 32.1 °F 23.0 °F 56% 30.07 in 10.0 mi NW 6.9 mph - N/A   Mostly Cloudy
6:15 PM 37.4 °F 32.8 °F 24.8 °F 60% 30.07 in 10.0 mi NW 5.8 mph - N/A   Overcast
6:35 PM 35.6 °F 29.2 °F 24.8 °F 65% 30.08 in 10.0 mi NNW 8.1 mph - N/A   Mostly Cloudy
6:55 PM 35.6 °F 27.5 °F 26.6 °F 70% 30.09 in 10.0 mi NNW 11.5 mph - N/A   Mostly Cloudy
7:15 PM 33.8 °F 26.4 °F 28.4 °F 81% 30.09 in 10.0 mi NNW 9.2 mph - N/A   Mostly Cloudy
7:35 PM 32.0 °F 24.8 °F 28.4 °F 87% 30.10 in 10.0 mi NW 8.1 mph - N/A   Scattered Clouds
7:55 PM 32.0 °F 25.6 °F 28.4 °F 87% 30.10 in 10.0 mi NNW 6.9 mph - N/A   Mostly Cloudy
8:15 PM 32.0 °F 25.6 °F 28.4 °F 87% 30.11 in 10.0 mi NNW 6.9 mph - N/A   Overcast
8:35 PM 32.0 °F 25.6 °F 28.4 °F 87% 30.12 in 4.0 mi NW 6.9 mph - N/A Snow Light Snow
8:55 PM 30.2 °F 23.4 °F 30.2 °F 100% 30.12 in 4.0 mi NW 6.9 mph - N/A Snow Light Snow
9:15 PM 30.2 °F 21.9 °F 30.2 °F 100% 30.13 in 10.0 mi NNW 9.2 mph - N/A Snow Light Snow
9:35 PM 30.2 °F 18.1 °F 28.4 °F 93% 30.15 in 4.0 mi North 18.4 mph 21.9 mph N/A Snow Light Snow
9:55 PM 28.4 °F 17.5 °F 24.8 °F 86% 30.16 in 7.0 mi North 13.8 mph 21.9 mph N/A Snow Light Snow
10:15 PM 28.4 °F 16.2 °F 24.8 °F 86% 30.17 in 10.0 mi NNW 17.3 mph 21.9 mph N/A Snow Light Snow
10:35 PM 28.4 °F 15.8 °F 21.2 °F 74% 30.18 in 10.0 mi North 18.4 mph 21.9 mph N/A   Overcast
10:55 PM 26.6 °F 16.2 °F 19.4 °F 74% 30.19 in 10.0 mi North 11.5 mph 17.3 mph N/A   Overcast
11:15 PM 26.6 °F 14.7 °F 15.8 °F 64% 30.21 in 10.0 mi NNW 15.0 mph 20.7 mph N/A   Overcast
11:35 PM 26.6 °F 16.8 °F 15.8 °F 64% 30.22 in 10.0 mi NNW 10.4 mph - N/A   Overcast
11:55 PM 24.8 °F 13.4 °F 15.8 °F 69% 30.23 in 10.0 mi NNW 12.7 mph 16.1 mph N/A   Overcast